SCP
-0 -0 -0 -0 -0 -0 -0 0 0 -0 0 0 0 0 0 0 0 -0 -0 -0 -0 -0 -0 -0 -0 -0 -0 -0 -0 -0 -0 -0 -0 -0 -0 0 0 0 0 -0 -0 0 -0
-0 -0 -0 -0 -0 -0 -0 0 0 0 -0 -0 -0 -0 0 0 -0 -0 -0 -0 -0 -0 -0 -0 -0 -0 -0 -0 -0 -0 0 0 0 -0 0 0 0 -0 0 -0 -0 0 0
-0 -0 -0 -0 -0 -0 -0 -0 0 0 -0 -0 -0 -0 -0 -0 -0 -0 -0 -0 -0 -0 -0 -0 -0 -0 -0 -0 -0 0 -0 -0 0 0 0 0 -0 -0 -0 0 0 0 0
0 0 0 -0 -0 -0 -0 -0 -0 -0 -0 -0 -0 -0 -0 -0 -0 -0 -0 -0 -0 -0 -0 -0 -0 -0 -0 -0 -0 -0 -0 -0 -0 -0 -0 -0 -0 -0 0 0 0 0 0
0 0 0 -0 -0 -0 -0 -0 -0 -0 -0 -0 -0 -0 -0 -0 -0 -0 -0 -0 -0 -0 -0 -0 -0 -0 -0 -0 -0 -0 -0 -0 -0 -0 -0 -0 -0 -0 0 0 -0 -0 -0
0 0 0 -0 -0 -0 -0 -0 -0 -0 -0 -0 -0 -0 -0 -0 -0 -0 -0 -0 -0 -0 -0 -0 -0 -0 -0 -0 -0 -0 -0 -0 0 -0 0 -0 -0 -0 -0 -0 -0 -0 -0
0 0 0 0 -0 -0 -0 -0 -0 -0 -0 -0 -0 -0 -0 -0 -0 -0 -0 -0 -0 -0 -0 -0 -0 -0 -0 -0 -0 -0 -0 0 0 -0 0 0 -0 -0 -0 0 -0 -0 0
0 0 0 0 0 -0 -0 -0 -0 -0 -0 -0 -0 -0 -0 -0 -0 -0 -0 -0 -0 -0 -0 -0 -0 -0 -0 -0 0 -0 -0 -0 -0 -0 -0 0 -0 -0 0 0 -0 -0 -0
0 0 0 0 0 0 0 0 0 -0 -0 -0 -0 -0 -0 -0 -0 -0 -0 -0 -0 -0 -0 -0 0 0 -0 0 0 -0 -0 -0 -0 -0 -0 0 -0 -0 0 -0 -0 -0 -0
0 0 0 0 0 0 0 0 0 0 0 0 0 0 0 0 0 0 0 -0 -0 -0 -0 0 -0 -0 0 -0 -0 -0 -0 0 -0 -0 0 0 0 0 0 0 0 0 0
0 0 0 0 0 0 0 0 0 0 0 0 0 0 0 0 0 0 0 0 -0 -0 -0 0 0 -0 -0 -0 -0 -0 -0 -0 -0 -0 0 0 0 0 0 0 0 0 0
0 0 0 0 0 0 0 0 0 0 0 0 0 0 0 0 0 0 0 0 0 0 0 0 -0 -0 -0 0 0 -0 0 -0 -0 -0 0 0 0 0 0 0 0 0 0
0 0 0 0 0 0 0 0 0 0 0 0 0 0 0 0 0 0 0 0 0 0 0 0 -0 -0 0 0 0 0 0 0 0 0 0 0 0 0 0 0 0 0 0
0 0 0 0 0 0 0 0 0 0 0 0 0 0 0 0 0 0 0 0 0 0 0 0 0 0 0 0 0 0 0 0 0 0 0 0 0 0 0 0 0 0 0
0 0 0 0 0 0 0 0 0 0 0 0 0 0 0 0 0 0 0 0 0 0 0 0 0 0 0 0 0 0 0 0 0 0 0 0 0 0 0 0 0 0 0
0 0 0 0 0 0 0 0 0 0 0 0 0 0 0 0 0 0 0 0 0 0 0 0 0 0 0 0 0 0 0 0 0 0 0 0 0 0 0 0 0 0 0
0 0 0 0 0 0 0 0 0 0 0 0 0 0 0 0 0 0 0 0 0 0 0 0 0 0 0 0 0 0 0 0 0 0 0 0 0 0 0 0 0 0 0
0 0 0 0 0 0 0 0 0 0 0 0 0 0 0 0 0 0 0 0 0 0 0 0 0 0 0 0 0 0 0 0 0 0 0 0 0 0 0 0 0 0 0
0 0 0 0 0 0 0 0 0 0 0 0 0 0 0 0 0 0 0 0 0 0 0 0 0 0 0 0 0 0 0 0 0 0 0 0 0 0 0 0 0 0 0
0 0 0 0 0 0 0 0 0 0 0 0 0 0 0 0 0 0 0 0 0 0 0 0 0 0 0 0 0 0 0 0 0 0 0 0 0 0 0 0 0 0 0
0 0 0 0 0 0 0 0 0 0 0 0 0 0 0 0 0 0 0 0 0 0 0 0 0 0 0 0 0 0 0 0 0 0 0 0 0 0 0 0 0 0 0
0 0 0 0 0 0 0 0 0 0 0 0 0 0 0 0 0 0 0 0 0 0 0 0 0 0 0 0 0 0 0 0 0 0 0 0 0 0 0 0 0 0 0
0 0 0 0 0 0 0 0 0 0 0 0 0 0 0 0 0 0 0 0 0 0 0 0 0 0 0 0 0 0 0 0 0 0 0 0 0 0 0 0 0 0 0
1 0 0 0 0 0 0 0 0 0 0 0 0 0 0 0 0 0 0 0 0 0 0 0 0 0 0 0 0 0 0 0 0 0 0 0 0 0 0 0 0 0 0
1 0 0 0 0 0 0 0 0 0 0 0 0 0 0 0 0 0 0 0 0 0 0 0 0 0 0 0 0 0 0 0 0 0 0 0 0 0 0 0 0 0 0
0 1 0 0 0 0 0 0 0 0 0 0 0 0 0 0 0 0 0 0 0 0 0 0 0 0 0 0 0 0 0 0 0 0 0 0 0 0 0 0 0 0 0
Wind_Speed_500mb
51 45 43 42 38 36 32 29 36 45 45 45 38 35 35 44 41 34 32 29 30 26 20 18 12 9 10 17 25 30 35 37 35 35 31 31 32 31 31 30 30 31 28
54 49 42 42 40 39 35 35 43 43 38 36 30 28 35 38 33 30 22 18 20 20 14 17 13 9 13 22 29 30 27 29 31 33 32 29 31 30 28 26 26 29 28
51 52 45 41 41 40 39 42 41 37 36 31 27 28 39 38 29 27 22 17 16 13 15 13 16 17 21 25 26 28 27 27 28 30 30 28 28 28 27 27 26 24 23
48 53 47 46 43 42 43 50 41 41 35 32 31 36 50 40 32 27 22 19 17 13 16 16 22 24 25 25 23 23 21 15 21 26 25 25 24 24 23 23 23 23 23
51 53 50 47 43 41 44 54 47 44 36 31 32 37 39 37 33 28 22 12 19 21 20 21 24 24 24 23 22 18 19 14 17 19 19 22 20 19 19 19 20 20 21
51 52 51 47 43 42 46 50 45 39 35 34 33 32 30 29 27 20 13 12 22 22 21 23 24 23 22 20 18 14 11 12 12 14 15 17 19 19 16 17 18 18 19
54 52 49 45 44 44 45 46 41 41 43 41 32 28 26 23 22 20 18 14 18 19 19 20 20 19 19 17 15 10 8 8 8 11 13 14 16 17 17 17 16 16 16
57 53 49 45 45 43 47 47 44 42 41 35 28 24 23 22 22 21 21 20 19 17 16 16 15 13 12 11 10 7 3 3 5 8 9 11 13 15 16 16 16 16 17
54 53 53 50 48 46 47 46 44 43 36 29 24 20 21 24 25 24 22 21 19 17 15 13 12 11 9 8 7 6 3 2 5 9 9 9 11 14 15 15 16 15 16
53 54 54 53 55 52 49 45 44 41 34 28 21 19 20 24 24 23 21 19 17 15 13 10 8 7 5 4 3 3 4 3 4 8 8 9 11 13 14 14 14 15 15
51 54 55 56 56 54 50 49 42 41 34 28 24 23 23 18 23 23 19 16 16 15 12 10 8 7 6 5 3 3 3 2 4 5 6 8 10 12 14 15 15 15 16
57 54 57 58 57 57 55 54 48 42 37 31 29 30 27 23 22 21 18 16 15 14 12 9 8 7 4 3 3 3 4 5 6 7 8 8 10 13 14 14 15 15 16
58 54 56 59 58 59 57 54 50 45 38 33 29 31 30 30 26 22 17 16 14 13 12 10 9 6 3 3 4 5 6 7 9 9 11 12 13 14 15 15 15 15 17
59 53 52 61 59 59 54 53 50 47 41 36 31 28 32 32 28 21 18 16 15 16 14 14 9 7 5 5 6 8 10 11 12 12 13 15 15 16 16 17 15 16 17
59 52 51 61 60 58 55 51 50 47 43 36 34 31 32 33 29 24 18 19 15 15 14 12 10 9 7 7 9 11 12 12 12 13 13 15 18 18 18 17 17 16 16
60 54 54 54 55 55 53 50 49 47 43 39 36 33 33 33 29 23 20 20 19 15 15 13 11 11 11 13 14 16 14 13 13 14 16 18 19 20 19 18 17 17 17
66 57 58 54 55 58 54 48 44 43 43 45 38 33 31 32 30 28 27 26 19 17 17 17 16 16 16 19 17 18 20 18 18 21 24 26 26 23 19 19 19 17 17
71 68 60 58 60 59 57 52 45 43 38 41 39 32 30 30 32 33 31 25 20 19 20 20 19 20 21 21 21 24 20 20 24 26 30 30 30 23 17 15 17 18 16
72 73 68 63 62 63 58 51 50 48 44 39 38 32 35 32 31 35 32 26 24 24 25 23 23 23 23 23 23 24 25 24 24 24 26 23 17 12 12 12 15 13 13
64 70 70 67 63 60 63 59 55 53 47 41 40 38 37 37 33 33 35 33 32 31 29 27 25 24 24 23 26 31 27 21 17 18 17 11 9 9 10 7 11 12 16
39 73 68 67 65 59 68 65 64 62 52 50 43 41 40 38 36 36 36 36 36 36 31 28 27 26 23 25 29 31 24 11 4 18 11 12 12 9 7 13 14 16 22
25 32 73 65 64 59 59 72 68 62 55 51 49 47 44 42 40 39 38 36 37 37 35 33 28 27 28 24 26 28 13 5 11 10 8 7 12 16 18 16 17 19 22
47 27 46 74 64 61 55 53 68 66 62 58 59 55 54 51 46 42 42 39 38 37 36 33 33 31 26 23 24 20 10 8 22 9 14 10 15 15 20 27 21 23 26
57 60 47 53 66 61 56 59 59 63 67 65 62 56 50 47 46 48 46 43 38 35 37 36 33 32 28 29 28 28 24 29 12 15 9 16 18 14 18 19 25 30 33
72 64 54 48 41 61 61 58 61 61 64 61 61 58 51 47 44 42 39 38 40 37 36 35 35 36 36 37 35 32 30 25 26 27 42 31 29 24 24 31 31 31 31
64 49 44 49 45 24 52 54 54 56 56 58 61 53 57 56 54 52 46 45 43 41 41 39 36 33 32 31 33 40 44 16 22 25 36 39 39 30 31 29 30 31 28
Wind_Direction_500mb
179 180 175 179 174 165 162 150 144 140 142 142 144 139 127 126 127 126 134 135 146 147 153 162 142 122 76 83 94 95 88 81 78 76 69 74 78 82 77 81 81 76 72
165 176 174 180 173 165 162 152 145 143 149 147 148 153 148 143 128 141 135 144 159 173 183 172 163 137 107 105 104 96 84 86 80 75 70 69 73 73 72 70 63 64 68
170 171 173 177 171 166 162 153 148 150 152 152 149 151 156 146 135 149 162 170 172 154 155 145 136 124 116 116 108 92 81 78 81 71 67 63 65 65 64 62 60 58 59
175 170 171 172 172 170 161 154 156 158 152 146 143 136 143 145 153 169 180 200 194 160 138 129 132 126 120 124 113 103 93 66 70 68 59 58 55 57 56 56 55 53 51
178 172 170 170 169 167 165 161 165 165 161 151 151 151 153 154 157 172 154 149 158 142 135 127 128 124 120 120 119 107 100 85 65 61 55 50 45 46 47 46 45 44 41
179 174 169 168 168 166 166 165 168 171 169 165 172 163 162 166 180 193 175 142 151 145 139 129 124 124 121 119 119 108 87 80 62 59 49 42 39 40 42 36 34 33 31
179 174 169 168 167 162 164 166 166 160 158 162 165 173 177 176 179 185 176 158 157 151 144 136 134 131 127 125 122 113 98 70 38 38 44 37 32 27 21 24 22 20 21
177 173 169 169 167 161 162 163 163 164 166 174 178 181 187 185 180 175 170 167 164 155 150 148 142 134 130 125 118 113 96 34 21 14 26 26 20 15 11 6 5 8 9
181 176 172 170 170 164 163 164 167 170 177 184 185 187 187 182 179 173 169 171 165 160 156 151 147 146 144 140 139 144 161 316 334 344 1 14 8 5 358 355 355 356 358
184 182 177 174 175 174 174 178 179 182 187 189 197 200 196 192 181 175 177 177 175 170 163 161 166 167 171 186 192 220 238 259 299 321 336 353 358 359 355 352 350 349 348
184 185 182 181 181 178 178 184 188 187 193 204 213 211 204 185 179 178 185 183 170 173 179 176 182 198 217 240 263 287 265 254 306 327 350 347 346 350 349 345 341 338 336
186 187 190 187 185 185 184 188 192 198 204 210 213 215 210 201 192 196 200 197 192 192 196 200 209 206 199 225 250 285 306 315 325 333 335 336 341 337 338 334 330 326 325
192 193 196 195 191 191 192 193 198 202 207 207 207 207 209 206 209 205 206 212 217 218 217 211 199 196 209 264 267 283 295 310 320 321 319 324 324 323 322 322 320 317 318
198 201 205 200 198 197 199 202 204 207 210 211 207 201 205 209 211 210 212 223 228 221 217 209 219 228 239 264 292 301 310 315 312 312 315 316 314 312 312 313 313 308 310
204 207 203 200 204 203 202 206 210 213 215 213 209 207 211 211 219 216 225 230 222 217 216 222 236 248 261 289 297 297 299 299 302 310 312 313 311 310 309 305 308 302 304
212 212 203 201 205 206 209 210 214 215 217 216 213 211 216 219 223 223 231 223 223 226 229 238 249 265 277 285 287 290 289 293 301 312 317 315 310 306 305 303 303 300 295
213 216 210 206 202 205 211 213 216 219 225 219 216 210 214 221 225 230 231 229 228 235 242 247 256 266 279 285 289 285 285 295 310 312 306 303 297 294 298 304 299 297 289
208 213 213 210 209 216 209 208 215 217 234 228 217 217 220 224 227 227 230 234 238 244 248 252 260 270 276 277 279 283 291 310 311 307 296 295 295 280 286 303 305 293 286
210 213 216 215 217 218 220 218 213 223 232 231 225 228 233 230 233 234 238 241 243 246 250 256 261 270 274 275 278 283 313 318 310 300 297 285 287 278 288 297 305 302 290
211 212 216 217 221 227 224 220 216 223 229 227 227 232 237 234 236 241 244 244 247 249 251 254 261 267 274 281 283 293 317 323 312 308 318 295 293 294 297 302 316 302 304
190 210 217 217 221 225 221 218 214 220 221 223 228 237 239 238 238 240 243 244 246 249 252 253 257 261 269 274 291 300 315 325 55 348 305 314 316 326 319 322 323 313 307
186 217 217 222 220 224 225 224 221 225 230 231 237 240 242 241 242 242 242 243 244 247 247 250 256 258 258 264 274 291 313 289 216 345 18 311 333 325 314 312 319 302 305
191 202 231 223 224 223 227 229 228 230 233 235 238 241 243 245 244 247 247 245 246 246 249 250 249 253 255 254 257 251 276 249 306 224 319 304 331 310 296 299 303 299 301
203 189 197 228 226 224 229 226 227 226 226 231 238 245 249 238 243 245 247 245 242 241 242 242 246 248 249 251 252 257 263 266 293 311 310 298 312 314 305 302 307 302 297
198 190 212 222 214 229 233 237 235 231 233 241 243 242 244 246 242 251 247 240 239 241 241 243 240 245 250 257 256 260 267 257 273 267 294 301 302 303 305 303 303 295 281
202 194 206 211 201 200 228 234 236 244 245 243 245 252 245 241 233 232 233 236 239 240 244 246 251 256 262 264 267 266 262 273 273 284 276 290 301 307 303 302 300 290 284
Wind_Speed_850mb
51 45 43 42 38 36 32 29 36 45 45 45 38 35 35 44 41 34 32 29 30 26 20 18 12 9 10 17 25 30 35 37 35 35 31 31 32 31 31 30 30 31 28
54 49 42 42 40 39 35 35 43 43 38 36 30 28 35 38 33 30 22 18 20 20 14 17 13 9 13 22 29 30 27 29 31 33 32 29 31 30 28 26 26 29 28
51 52 45 41 41 40 39 42 41 37 36 31 27 28 39 38 29 27 22 17 16 13 15 13 16 17 21 25 26 28 27 27 28 30 30 28 28 28 27 27 26 24 23
48 53 47 46 43 42 43 50 41 41 35 32 31 36 50 40 32 27 22 19 17 13 16 16 22 24 25 25 23 23 21 15 21 26 25 25 24 24 23 23 23 23 23
51 53 50 47 43 41 44 54 47 44 36 31 32 37 39 37 33 28 22 12 19 21 20 21 24 24 24 23 22 18 19 14 17 19 19 22 20 19 19 19 20 20 21
51 52 51 47 43 42 46 50 45 39 35 34 33 32 30 29 27 20 13 12 22 22 21 23 24 23 22 20 18 14 11 12 12 14 15 17 19 19 16 17 18 18 19
54 52 49 45 44 44 45 46 41 41 43 41 32 28 26 23 22 20 18 14 18 19 19 20 20 19 19 17 15 10 8 8 8 11 13 14 16 17 17 17 16 16 16
57 53 49 45 45 43 47 47 44 42 41 35 28 24 23 22 22 21 21 20 19 17 16 16 15 13 12 11 10 7 3 3 5 8 9 11 13 15 16 16 16 16 17
54 53 53 50 48 46 47 46 44 43 36 29 24 20 21 24 25 24 22 21 19 17 15 13 12 11 9 8 7 6 3 2 5 9 9 9 11 14 15 15 16 15 16
53 54 54 53 55 52 49 45 44 41 34 28 21 19 20 24 24 23 21 19 17 15 13 10 8 7 5 4 3 3 4 3 4 8 8 9 11 13 14 14 14 15 15
51 54 55 56 56 54 50 49 42 41 34 28 24 23 23 18 23 23 19 16 16 15 12 10 8 7 6 5 3 3 3 2 4 5 6 8 10 12 14 15 15 15 16
57 54 57 58 57 57 55 54 48 42 37 31 29 30 27 23 22 21 18 16 15 14 12 9 8 7 4 3 3 3 4 5 6 7 8 8 10 13 14 14 15 15 16
58 54 56 59 58 59 57 54 50 45 38 33 29 31 30 30 26 22 17 16 14 13 12 10 9 6 3 3 4 5 6 7 9 9 11 12 13 14 15 15 15 15 17
59 53 52 61 59 59 54 53 50 47 41 36 31 28 32 32 28 21 18 16 15 16 14 14 9 7 5 5 6 8 10 11 12 12 13 15 15 16 16 17 15 16 17
59 52 51 61 60 58 55 51 50 47 43 36 34 31 32 33 29 24 18 19 15 15 14 12 10 9 7 7 9 11 12 12 12 13 13 15 18 18 18 17 17 16 16
60 54 54 54 55 55 53 50 49 47 43 39 36 33 33 33 29 23 20 20 19 15 15 13 11 11 11 13 14 16 14 13 13 14 16 18 19 20 19 18 17 17 17
66 57 58 54 55 58 54 48 44 43 43 45 38 33 31 32 30 28 27 26 19 17 17 17 16 16 16 19 17 18 20 18 18 21 24 26 26 23 19 19 19 17 17
71 68 60 58 60 59 57 52 45 43 38 41 39 32 30 30 32 33 31 25 20 19 20 20 19 20 21 21 21 24 20 20 24 26 30 30 30 23 17 15 17 18 16
72 73 68 63 62 63 58 51 50 48 44 39 38 32 35 32 31 35 32 26 24 24 25 23 23 23 23 23 23 24 25 24 24 24 26 23 17 12 12 12 15 13 13
64 70 70 67 63 60 63 59 55 53 47 41 40 38 37 37 33 33 35 33 32 31 29 27 25 24 24 23 26 31 27 21 17 18 17 11 9 9 10 7 11 12 16
39 73 68 67 65 59 68 65 64 62 52 50 43 41 40 38 36 36 36 36 36 36 31 28 27 26 23 25 29 31 24 11 4 18 11 12 12 9 7 13 14 16 22
25 32 73 65 64 59 59 72 68 62 55 51 49 47 44 42 40 39 38 36 37 37 35 33 28 27 28 24 26 28 13 5 11 10 8 7 12 16 18 16 17 19 22
47 27 46 74 64 61 55 53 68 66 62 58 59 55 54 51 46 42 42 39 38 37 36 33 33 31 26 23 24 20 10 8 22 9 14 10 15 15 20 27 21 23 26
57 60 47 53 66 61 56 59 59 63 67 65 62 56 50 47 46 48 46 43 38 35 37 36 33 32 28 29 28 28 24 29 12 15 9 16 18 14 18 19 25 30 33
72 64 54 48 41 61 61 58 61 61 64 61 61 58 51 47 44 42 39 38 40 37 36 35 35 36 36 37 35 32 30 25 26 27 42 31 29 24 24 31 31 31 31
64 49 44 49 45 24 52 54 54 56 56 58 61 53 57 56 54 52 46 45 43 41 41 39 36 33 32 31 33 40 44 16 22 25 36 39 39 30 31 29 30 31 28
Wind_Direction_850mb
179 180 175 179 174 165 162 150 144 140 142 142 144 139 127 126 127 126 134 135 146 147 153 162 142 122 76 83 94 95 88 81 78 76 69 74 78 82 77 81 81 76 72
165 176 174 180 173 165 162 152 145 143 149 147 148 153 148 143 128 141 135 144 159 173 183 172 163 137 107 105 104 96 84 86 80 75 70 69 73 73 72 70 63 64 68
170 171 173 177 171 166 162 153 148 150 152 152 149 151 156 146 135 149 162 170 172 154 155 145 136 124 116 116 108 92 81 78 81 71 67 63 65 65 64 62 60 58 59
175 170 171 172 172 170 161 154 156 158 152 146 143 136 143 145 153 169 180 200 194 160 138 129 132 126 120 124 113 103 93 66 70 68 59 58 55 57 56 56 55 53 51
178 172 170 170 169 167 165 161 165 165 161 151 151 151 153 154 157 172 154 149 158 142 135 127 128 124 120 120 119 107 100 85 65 61 55 50 45 46 47 46 45 44 41
179 174 169 168 168 166 166 165 168 171 169 165 172 163 162 166 180 193 175 142 151 145 139 129 124 124 121 119 119 108 87 80 62 59 49 42 39 40 42 36 34 33 31
179 174 169 168 167 162 164 166 166 160 158 162 165 173 177 176 179 185 176 158 157 151 144 136 134 131 127 125 122 113 98 70 38 38 44 37 32 27 21 24 22 20 21
177 173 169 169 167 161 162 163 163 164 166 174 178 181 187 185 180 175 170 167 164 155 150 148 142 134 130 125 118 113 96 34 21 14 26 26 20 15 11 6 5 8 9
181 176 172 170 170 164 163 164 167 170 177 184 185 187 187 182 179 173 169 171 165 160 156 151 147 146 144 140 139 144 161 316 334 344 1 14 8 5 358 355 355 356 358
184 182 177 174 175 174 174 178 179 182 187 189 197 200 196 192 181 175 177 177 175 170 163 161 166 167 171 186 192 220 238 259 299 321 336 353 358 359 355 352 350 349 348
184 185 182 181 181 178 178 184 188 187 193 204 213 211 204 185 179 178 185 183 170 173 179 176 182 198 217 240 263 287 265 254 306 327 350 347 346 350 349 345 341 338 336
186 187 190 187 185 185 184 188 192 198 204 210 213 215 210 201 192 196 200 197 192 192 196 200 209 206 199 225 250 285 306 315 325 333 335 336 341 337 338 334 330 326 325
192 193 196 195 191 191 192 193 198 202 207 207 207 207 209 206 209 205 206 212 217 218 217 211 199 196 209 264 267 283 295 310 320 321 319 324 324 323 322 322 320 317 318
198 201 205 200 198 197 199 202 204 207 210 211 207 201 205 209 211 210 212 223 228 221 217 209 219 228 239 264 292 301 310 315 312 312 315 316 314 312 312 313 313 308 310
204 207 203 200 204 203 202 206 210 213 215 213 209 207 211 211 219 216 225 230 222 217 216 222 236 248 261 289 297 297 299 299 302 310 312 313 311 310 309 305 308 302 304
212 212 203 201 205 206 209 210 214 215 217 216 213 211 216 219 223 223 231 223 223 226 229 238 249 265 277 285 287 290 289 293 301 312 317 315 310 306 305 303 303 300 295
213 216 210 206 202 205 211 213 216 219 225 219 216 210 214 221 225 230 231 229 228 235 242 247 256 266 279 285 289 285 285 295 310 312 306 303 297 294 298 304 299 297 289
208 213 213 210 209 216 209 208 215 217 234 228 217 217 220 224 227 227 230 234 238 244 248 252 260 270 276 277 279 283 291 310 311 307 296 295 295 280 286 303 305 293 286
210 213 216 215 217 218 220 218 213 223 232 231 225 228 233 230 233 234 238 241 243 246 250 256 261 270 274 275 278 283 313 318 310 300 297 285 287 278 288 297 305 302 290
211 212 216 217 221 227 224 220 216 223 229 227 227 232 237 234 236 241 244 244 247 249 251 254 261 267 274 281 283 293 317 323 312 308 318 295 293 294 297 302 316 302 304
190 210 217 217 221 225 221 218 214 220 221 223 228 237 239 238 238 240 243 244 246 249 252 253 257 261 269 274 291 300 315 325 55 348 305 314 316 326 319 322 323 313 307
186 217 217 222 220 224 225 224 221 225 230 231 237 240 242 241 242 242 242 243 244 247 247 250 256 258 258 264 274 291 313 289 216 345 18 311 333 325 314 312 319 302 305
191 202 231 223 224 223 227 229 228 230 233 235 238 241 243 245 244 247 247 245 246 246 249 250 249 253 255 254 257 251 276 249 306 224 319 304 331 310 296 299 303 299 301
203 189 197 228 226 224 229 226 227 226 226 231 238 245 249 238 243 245 247 245 242 241 242 242 246 248 249 251 252 257 263 266 293 311 310 298 312 314 305 302 307 302 297
198 190 212 222 214 229 233 237 235 231 233 241 243 242 244 246 242 251 247 240 239 241 241 243 240 245 250 257 256 260 267 257 273 267 294 301 302 303 305 303 303 295 281
202 194 206 211 201 200 228 234 236 244 245 243 245 252 245 241 233 232 233 236 239 240 244 246 251 256 262 264 267 266 262 273 273 284 276 290 301 307 303 302 300 290 284